| time (UTC) | temp F | wind direction | speed knots | gust knots | rain 1hr in | rain 24hr in | rain mn in | humidity % | barometer mb |
| 20260502203919 | 72 | 351 | 7.8 | 11.3 | 0.00 | 0.25 | 0.25 | 43 | 1019.2 |
| 20260502203416 | 72 | 336 | 7.0 | 11.3 | 0.00 | 0.25 | 0.25 | 46 | 1019.1 |
| 20260502202912 | 72 | 17 | 4.3 | 7.8 | 0.00 | 0.25 | 0.25 | 45 | 1019.0 |
| 20260502202409 | 72 | 7 | 5.2 | 12.2 | 0.00 | 0.25 | 0.25 | 46 | 1019.4 |
| 20260502201907 | 71 | 48 | 4.3 | 13.0 | 0.00 | 0.25 | 0.25 | 47 | 1019.1 |
| 20260502201403 | 71 | 53 | 9.6 | 13.0 | 0.00 | 0.25 | 0.25 | 45 | 1019.4 |
| 20260502200900 | 71 | 8 | 8.7 | 12.2 | 0.00 | 0.25 | 0.25 | 45 | 1019.3 |
| 20260502200355 | 71 | 29 | 9.6 | 12.2 | 0.00 | 0.25 | 0.25 | 46 | 1019.6 |
| 20260502195854 | 71 | 19 | 7.8 | 13.0 | 0.00 | 0.25 | 0.25 | 48 | 1019.5 |
| 20260502195350 | 72 | 72 | 9.6 | 12.2 | 0.00 | 0.25 | 0.25 | 49 | 1019.4 |
| 20260502194847 | 71 | 5 | 7.0 | 7.8 | 0.00 | 0.25 | 0.25 | 49 | 1019.5 |
| 20260502194343 | 71 | 349 | 7.8 | 12.2 | 0.00 | 0.25 | 0.25 | 49 | 1019.7 |
| 20260502193839 | 71 | 2 | 9.6 | 12.2 | 0.00 | 0.25 | 0.25 | 52 | 1019.6 |
| 20260502193337 | 71 | 7 | 7.0 | 9.6 | 0.00 | 0.25 | 0.25 | 54 | 1019.5 |
| 20260502192832 | 71 | 12 | 5.2 | 11.3 | 0.00 | 0.25 | 0.25 | 56 | 1019.6 |
| 20260502192329 | 71 | 0 | 7.0 | 9.6 | 0.00 | 0.25 | 0.25 | 54 | 1019.9 |
| 20260502191827 | 71 | 1 | 7.8 | 13.0 | 0.00 | 0.25 | 0.25 | 52 | 1019.5 |
| 20260502191325 | 71 | 344 | 7.0 | 9.6 | 0.00 | 0.25 | 0.25 | 57 | 1019.5 |
| 20260502190821 | 71 | 358 | 4.3 | 7.0 | 0.00 | 0.25 | 0.25 | 58 | 1019.7 |
| 20260502190319 | 70 | 12 | 9.6 | 12.2 | 0.00 | 0.25 | 0.25 | 54 | 1019.9 |
| 20260502185814 | 71 | 0 | 6.1 | 11.3 | 0.00 | 0.25 | 0.25 | 54 | 1019.8 |
| 20260502185310 | 70 | 17 | 7.0 | 9.6 | 0.00 | 0.25 | 0.25 | 56 | 1019.7 |
| 20260502184807 | 70 | 19 | 7.0 | 12.2 | 0.00 | 0.25 | 0.25 | 55 | 1019.8 |
| 20260502184303 | 70 | 12 | 6.1 | 8.7 | 0.00 | 0.25 | 0.25 | 56 | 1019.7 |
| 20260502183759 | 69 | 35 | 6.1 | 11.3 | 0.00 | 0.25 | 0.25 | 56 | 1019.8 |
| 20260502183256 | 70 | 329 | 7.8 | 9.6 | 0.00 | 0.25 | 0.25 | 59 | 1020.1 |
| 20260502182751 | 69 | 8 | 12.2 | 13.0 | 0.00 | 0.25 | 0.25 | 56 | 1020.0 |
| 20260502182247 | 69 | 9 | 7.8 | 12.2 | 0.00 | 0.25 | 0.25 | 60 | 1020.1 |
| 20260502181743 | 69 | 32 | 6.1 | 13.9 | 0.00 | 0.25 | 0.25 | 56 | 1020.2 |
| 20260502181243 | 69 | 19 | 5.2 | 8.7 | 0.00 | 0.25 | 0.25 | 59 | 1020.0 |
| 20260502180740 | 69 | 16 | 7.8 | 13.9 | 0.00 | 0.25 | 0.25 | 56 | 1020.4 |
| 20260502180237 | 69 | 43 | 6.1 | 8.7 | 0.00 | 0.25 | 0.25 | 59 | 1020.2 |
| 20260502170201 | 68 | 25 | 7.8 | 11.3 | 0.00 | 0.25 | 0.25 | 62 | 1020.8 |
| 20260502164148 | 67 | 56 | 4.3 | 12.2 | 0.00 | 0.25 | 0.25 | 67 | 1020.8 |
| 20260502163643 | 68 | 11 | 8.7 | 13.0 | 0.00 | 0.25 | 0.25 | 64 | 1020.7 |
| 20260502163141 | 67 | 1 | 5.2 | 7.8 | 0.00 | 0.25 | 0.25 | 69 | 1020.4 |
| 20260502162638 | 66 | 332 | 7.8 | 11.3 | 0.00 | 0.25 | 0.25 | 67 | 1020.6 |
| 20260502162135 | 66 | 348 | 8.7 | 12.2 | 0.00 | 0.25 | 0.25 | 68 | 1020.4 |
| 20260502161632 | 66 | 353 | 7.0 | 11.3 | 0.00 | 0.25 | 0.25 | 69 | 1020.7 |
| 20260502161129 | 66 | 2 | 9.6 | 11.3 | 0.00 | 0.25 | 0.25 | 71 | 1020.6 |
| 20260502160626 | 65 | 5 | 4.3 | 8.7 | 0.00 | 0.25 | 0.25 | 73 | 1020.9 |
| 20260502160125 | 65 | 9 | 7.8 | 12.2 | 0.00 | 0.25 | 0.25 | 70 | 1020.8 |
| 20260502152039 | 63 | 12 | 7.0 | 8.7 | 0.00 | 0.25 | 0.25 | 77 | 1020.4 |
| 20260502151536 | 63 | 2 | 6.1 | 9.6 | 0.00 | 0.25 | 0.25 | 76 | 1020.5 |
| 20260502151033 | 63 | 13 | 3.5 | 7.0 | 0.00 | 0.25 | 0.25 | 79 | 1020.5 |
| 20260502150531 | 62 | 15 | 7.8 | 11.3 | 0.00 | 0.25 | 0.25 | 80 | 1020.4 |
| 20260502130416 | 56 | 17 | 5.2 | 7.8 | 0.00 | 0.25 | 0.25 | 92 | 1019.1 |
| 20260502123358 | 55 | 356 | 4.3 | 6.1 | 0.00 | 0.25 | 0.25 | 95 | 1018.6 |
| 20260502122856 | 54 | 350 | 2.6 | 3.5 | 0.00 | 0.25 | 0.25 | 95 | 1018.7 |
| 20260502122351 | 54 | 6 | 1.7 | 3.5 | 0.00 | 0.25 | 0.25 | 95 | 1018.4 |
| 20260502121850 | 54 | 3 | 4.3 | 5.2 | 0.00 | 0.25 | 0.25 | 95 | 1018.4 |
| 20260502121347 | 54 | 0 | 2.6 | 7.0 | 0.00 | 0.25 | 0.25 | 95 | 1018.5 |
| 20260502120844 | 54 | 27 | 3.5 | 3.5 | 0.00 | 0.25 | 0.25 | 95 | 1018.2 |
| 20260502120340 | 54 | 27 | 4.3 | 5.2 | 0.00 | 0.25 | 0.25 | 95 | 1017.9 |
| 20260502115838 | 54 | 2 | 3.5 | 6.1 | 0.00 | 0.25 | 0.25 | 95 | 1018.2 |
| 20260502115335 | 54 | 11 | 3.5 | 5.2 | 0.00 | 0.25 | 0.25 | 95 | 1018.1 |
| 20260502114831 | 54 | 20 | 2.6 | 2.6 | 0.00 | 0.25 | 0.25 | 95 | 1017.8 |
| 20260502114328 | 53 | 357 | 3.5 | 5.2 | 0.00 | 0.25 | 0.25 | 95 | 1017.6 |
| 20260502113825 | 53 | 15 | 0.0 | 0.0 | 0.00 | 0.25 | 0.25 | 95 | 1017.4 |
| 20260502113323 | 53 | 7 | 0.9 | 1.7 | 0.00 | 0.25 | 0.25 | 95 | 1017.8 |
| 20260502112821 | 53 | 18 | 0.9 | 0.9 | 0.00 | 0.25 | 0.25 | 95 | 1017.4 |
| 20260502112318 | 53 | 16 | 0.9 | 0.9 | 0.00 | 0.25 | 0.25 | 95 | 1017.5 |
| 20260502111815 | 53 | 17 | 0.9 | 1.7 | 0.00 | 0.25 | 0.25 | 94 | 1017.7 |
| 20260502111313 | 53 | 9 | 1.7 | 1.7 | 0.00 | 0.25 | 0.25 | 94 | 1017.4 |
| 20260502110810 | 53 | 9 | 0.9 | 1.7 | 0.00 | 0.25 | 0.25 | 94 | 1017.3 |
| 20260502110308 | 53 | 110 | 1.7 | 1.7 | 0.00 | 0.25 | 0.25 | 94 | 1017.3 |
| 20260502105806 | 53 | 4 | 1.7 | 2.6 | 0.00 | 0.25 | 0.25 | 94 | 1017.0 |
| 20260502105301 | 53 | 21 | 0.9 | 1.7 | 0.00 | 0.25 | 0.25 | 94 | 1017.4 |
| 20260502104800 | 53 | 39 | 1.7 | 3.5 | 0.00 | 0.25 | 0.25 | 94 | 1017.3 |
| 20260502104256 | 53 | 7 | 0.0 | 1.7 | 0.00 | 0.25 | 0.25 | 94 | 1017.2 |
| 20260502103754 | 53 | 11 | 1.7 | 3.5 | 0.00 | 0.25 | 0.25 | 94 | 1017.2 |
| 20260502103251 | 53 | 14 | 4.3 | 8.7 | 0.00 | 0.25 | 0.25 | 94 | 1017.1 |
| 20260502102748 | 53 | 4 | 2.6 | 3.5 | 0.00 | 0.25 | 0.25 | 94 | 1017.3 |
| 20260502102244 | 54 | 16 | 1.7 | 2.6 | 0.00 | 0.25 | 0.25 | 94 | 1017.4 |
| 20260502101743 | 54 | 8 | 1.7 | 5.2 | 0.00 | 0.25 | 0.25 | 94 | 1017.2 |
| 20260502101241 | 54 | 0 | 4.3 | 5.2 | 0.00 | 0.25 | 0.25 | 94 | 1017.3 |
| 20260502100738 | 54 | 17 | 2.6 | 6.1 | 0.00 | 0.25 | 0.25 | 94 | 1017.1 |
| 20260502100237 | 53 | 22 | 1.7 | 3.5 | 0.00 | 0.25 | 0.25 | 94 | 1017.0 |
| 20260502091211 | 54 | 5 | 7.8 | 11.3 | 0.00 | 0.25 | 0.25 | 95 | 1016.6 |
| 20260502090709 | 54 | 20 | 5.2 | 7.0 | 0.00 | 0.25 | 0.25 | 96 | 1016.4 |
| 20260502090205 | 54 | 352 | 7.8 | 13.9 | 0.00 | 0.25 | 0.25 | 96 | 1016.6 |
| 20260502071107 | 54 | 12 | 3.5 | 6.1 | 0.00 | 0.24 | 0.24 | 98 | 1016.4 |
| 20260502070605 | 54 | 16 | 6.1 | 7.8 | 0.05 | 0.24 | 0.24 | 98 | 1016.5 |
| 20260502065600 | 54 | 342 | 5.2 | 6.1 | 0.00 | 0.23 | 0.23 | 98 | 1016.6 |
| 20260502065058 | 54 | 3 | 3.5 | 6.1 | 0.00 | 0.23 | 0.23 | 98 | 1016.5 |
| 20260502064556 | 54 | 26 | 3.5 | 5.2 | 0.07 | 0.23 | 0.23 | 98 | 1016.4 |
| 20260502064053 | 54 | 350 | 3.5 | 5.2 | 0.07 | 0.23 | 0.23 | 98 | 1016.6 |
| 20260502063551 | 54 | 25 | 0.9 | 6.1 | 0.12 | 0.22 | 0.22 | 98 | 1016.5 |
| 20260502063049 | 54 | 42 | 2.6 | 5.2 | 0.31 | 0.21 | 0.21 | 98 | 1016.9 |
| 20260502062545 | 54 | 22 | 2.6 | 5.2 | 0.31 | 0.20 | 0.20 | 98 | 1016.8 |
| 20260502062043 | 54 | 68 | 3.5 | 3.5 | 0.12 | 0.16 | 0.16 | 98 | 1016.9 |
| 20260502061541 | 54 | 29 | 2.6 | 3.5 | 0.12 | 0.15 | 0.15 | 98 | 1017.0 |
| 20260502061038 | 54 | 0 | 1.7 | 6.1 | 0.19 | 0.14 | 0.14 | 98 | 1016.6 |
| 20260502060533 | 54 | 8 | 3.5 | 6.1 | 0.28 | 0.13 | 0.13 | 98 | 1016.1 |
| 20260502060030 | 54 | 11 | 1.7 | 2.6 | 0.31 | 0.10 | 0.10 | 98 | 1016.0 |
| 20260502055528 | 54 | 20 | 1.7 | 7.0 | 0.19 | 0.08 | 0.08 | 98 | 1016.1 |
| 20260502055026 | 54 | 25 | 3.5 | 7.0 | 0.07 | 0.05 | 0.05 | 97 | 1016.2 |
| 20260502054525 | 54 | 15 | 2.6 | 6.1 | 0.07 | 0.05 | 0.05 | 98 | 1016.1 |
| 20260502054021 | 54 | 15 | 3.5 | 7.0 | 0.05 | 0.04 | 0.04 | 97 | 1015.8 |
| 20260502053518 | 54 | 45 | 3.5 | 7.0 | 0.12 | 0.04 | 0.04 | 97 | 1015.6 |
| 20260502053016 | 54 | 355 | 1.7 | 7.0 | 0.07 | 0.03 | 0.03 | 98 | 1015.6 |
| 20260502052514 | 55 | 11 | 4.3 | 6.1 | 0.05 | 0.02 | 0.02 | 97 | 1016.0 |
| 20260502052012 | 55 | 11 | 3.5 | 7.0 | 0.05 | 0.02 | 0.02 | 97 | 1016.8 |
| 20260502051510 | 55 | 29 | 3.5 | 5.2 | 0.00 | 0.01 | 0.01 | 97 | 1016.7 |
| 20260502051007 | 55 | 25 | 3.5 | 7.8 | 0.07 | 0.01 | 0.01 | 97 | 1016.6 |
| 20260502050503 | 55 | 11 | 2.6 | 6.1 | 0.07 | 0.01 | 0.01 | 97 | 1016.5 |
| 20260502050000 | 55 | 4 | 5.2 | 8.7 | 0.12 | 3.11 | 3.11 | 97 | 1016.7 |
| 20260502045457 | 55 | 27 | 5.2 | 7.0 | 0.24 | 3.11 | 3.11 | 97 | 1016.2 |
| 20260502044954 | 55 | 336 | 5.2 | 7.8 | 0.14 | 3.08 | 3.08 | 97 | 1016.3 |
| 20260502044450 | 55 | 352 | 4.3 | 8.7 | 0.19 | 3.07 | 3.07 | 97 | 1016.2 |
| 20260502043947 | 55 | 15 | 5.2 | 9.6 | 0.07 | 3.05 | 3.05 | 97 | 1016.1 |
| 20260502043445 | 55 | 1 | 4.3 | 7.0 | 0.12 | 3.04 | 3.04 | 97 | 1016.6 |
| 20260502042944 | 56 | 355 | 2.6 | 5.2 | 0.07 | 3.03 | 3.03 | 96 | 1016.5 |
| 20260502042441 | 56 | 19 | 5.2 | 7.8 | 0.05 | 3.02 | 3.02 | 96 | 1016.1 |
| 20260502041938 | 56 | 3 | 5.2 | 7.0 | 0.05 | 3.02 | 3.02 | 96 | 1015.9 |
| 20260502041436 | 56 | 11 | 7.0 | 7.8 | 0.00 | 3.01 | 3.01 | 96 | 1016.0 |
| 20260502040933 | 56 | 4 | 2.6 | 6.1 | 0.00 | 3.01 | 3.01 | 96 | 1016.0 |
| 20260502040430 | 56 | 10 | 4.3 | 7.0 | 0.00 | 3.01 | 3.01 | 96 | 1016.1 |
| 20260502035926 | 56 | 7 | 4.3 | 7.0 | 0.00 | 3.01 | 3.01 | 96 | 1016.3 |
| 20260502035422 | 56 | 357 | 2.6 | 7.0 | 0.00 | 3.01 | 3.01 | 96 | 1015.9 |
| 20260502034921 | 56 | 39 | 4.3 | 7.8 | 0.00 | 3.01 | 3.01 | 96 | 1016.1 |
| 20260502034419 | 56 | 356 | 7.8 | 12.2 | 0.00 | 3.01 | 3.01 | 96 | 1016.0 |
| 20260502033917 | 56 | 11 | 1.7 | 5.2 | 0.00 | 3.01 | 3.01 | 96 | 1015.6 |
| 20260502033414 | 56 | 17 | 2.6 | 5.2 | 0.00 | 3.01 | 3.01 | 96 | 1015.5 |
| 20260502032910 | 56 | 11 | 5.2 | 7.0 | 0.00 | 3.01 | 3.01 | 96 | 1015.4 |
| 20260502032407 | 56 | 27 | 3.5 | 11.3 | 0.00 | 3.01 | 3.01 | 96 | 1015.4 |
| 20260502031904 | 56 | 20 | 2.6 | 5.2 | 0.00 | 3.01 | 3.01 | 96 | 1015.7 |
| 20260502031402 | 56 | 7 | 2.6 | 3.5 | 0.00 | 3.01 | 3.01 | 96 | 1015.8 |
| 20260502030900 | 56 | 17 | 3.5 | 7.0 | 0.00 | 3.01 | 3.01 | 96 | 1015.6 |
| 20260502030358 | 56 | 16 | 3.5 | 12.2 | 0.00 | 3.01 | 3.01 | 96 | 1015.5 |
| 20260502025856 | 56 | 2 | 1.7 | 3.5 | 0.00 | 3.01 | 3.01 | 97 | 1015.7 |
| 20260502025353 | 56 | 84 | 5.2 | 7.8 | 0.00 | 3.01 | 3.01 | 97 | 1015.3 |
| 20260502024851 | 56 | 356 | 2.6 | 3.5 | 0.00 | 3.01 | 3.01 | 97 | 1015.4 |
| 20260502024348 | 56 | 5 | 1.7 | 8.7 | 0.00 | 3.01 | 3.01 | 97 | 1015.4 |
| 20260502023846 | 56 | 351 | 3.5 | 7.8 | 0.00 | 3.01 | 3.01 | 97 | 1015.7 |
| 20260502023343 | 56 | 52 | 0.9 | 8.7 | 0.00 | 3.01 | 3.01 | 97 | 1015.7 |
| 20260502022841 | 56 | 5 | 4.3 | 7.8 | 0.00 | 3.01 | 3.01 | 97 | 1015.2 |
| 20260502022337 | 56 | 16 | 6.1 | 7.0 | 0.00 | 3.01 | 3.01 | 97 | 1015.4 |
| 20260502021834 | 56 | 317 | 2.6 | 7.0 | 0.00 | 3.01 | 3.01 | 97 | 1015.2 |
| 20260502021331 | 56 | 27 | 2.6 | 7.8 | 0.00 | 3.01 | 3.01 | 97 | 1014.9 |
| 20260502020829 | 56 | 358 | 2.6 | 7.8 | 0.00 | 3.01 | 3.01 | 97 | 1015.3 |
| 20260502020326 | 56 | 23 | 1.7 | 5.2 | 0.00 | 3.01 | 3.01 | 98 | 1015.2 |
| 20260502015823 | 56 | 27 | 3.5 | 8.7 | 0.00 | 3.01 | 3.01 | 98 | 1015.2 |
| 20260502015320 | 56 | 42 | 6.1 | 8.7 | 0.00 | 3.01 | 3.01 | 98 | 1014.8 |
| 20260502014817 | 57 | 44 | 8.7 | 11.3 | 0.00 | 3.01 | 3.01 | 98 | 1014.6 |
| 20260502014314 | 57 | 19 | 0.9 | 8.7 | 0.00 | 3.01 | 3.01 | 98 | 1014.6 |
| 20260502013810 | 57 | 25 | 2.6 | 11.3 | 0.00 | 3.01 | 3.01 | 98 | 1014.4 |
| 20260502013306 | 57 | 35 | 0.9 | 1.7 | 0.00 | 3.01 | 3.01 | 98 | 1014.1 |
| 20260502012803 | 57 | 347 | 2.6 | 7.0 | 0.00 | 3.01 | 3.01 | 98 | 1014.1 |
| 20260502012300 | 57 | 3 | 1.7 | 6.1 | 0.00 | 3.01 | 3.01 | 98 | 1013.8 |
| 20260502011758 | 56 | 14 | 2.6 | 7.0 | 0.00 | 3.01 | 3.01 | 98 | 1013.3 |
| 20260502011254 | 56 | 37 | 4.3 | 6.1 | 0.00 | 3.01 | 3.01 | 98 | 1013.4 |
| 20260502010751 | 56 | 34 | 1.7 | 3.5 | 0.00 | 3.01 | 3.01 | 98 | 1013.1 |
| 20260502010247 | 56 | 28 | 1.7 | 5.2 | 0.00 | 3.01 | 3.01 | 98 | 1013.1 |
| 20260502005744 | 56 | 357 | 3.5 | 7.0 | 0.00 | 3.01 | 3.01 | 98 | 1012.9 |
| 20260502005242 | 56 | 31 | 4.3 | 8.7 | 0.00 | 3.01 | 3.01 | 98 | 1012.3 |
| 20260502004739 | 57 | 16 | 5.2 | 8.7 | 0.00 | 3.01 | 3.01 | 98 | 1011.9 |
| 20260502004235 | 57 | 41 | 4.3 | 7.0 | 0.00 | 3.01 | 3.01 | 99 | 1011.8 |
| 20260502003733 | 57 | 19 | 4.3 | 13.0 | 0.00 | 3.01 | 3.01 | 98 | 1011.4 |
| 20260502003230 | 57 | 24 | 3.5 | 7.0 | 0.00 | 3.01 | 3.01 | 99 | 1011.3 |
| 20260502002726 | 57 | 4 | 5.2 | 13.0 | 0.07 | 3.01 | 3.01 | 98 | 1011.7 |
| 20260502002224 | 57 | 14 | 1.7 | 5.2 | 0.12 | 3.01 | 3.01 | 98 | 1011.8 |
| 20260502001721 | 57 | 27 | 1.7 | 7.8 | 0.12 | 3.00 | 3.00 | 98 | 1012.7 |
| 20260502001219 | 57 | 41 | 1.7 | 3.5 | 0.12 | 3.00 | 3.00 | 98 | 1013.3 |
| 20260502000716 | 57 | 54 | 0.9 | 3.5 | 0.24 | 2.98 | 2.98 | 98 | 1013.7 |
| 20260502000214 | 57 | 29 | 4.3 | 7.0 | 0.31 | 2.97 | 2.97 | 98 | 1013.3 |
| 20260501235709 | 57 | 1 | 3.5 | 7.8 | 0.35 | 2.94 | 2.94 | 98 | 1013.1 |
| 20260501235205 | 57 | 17 | 2.6 | 8.7 | 0.35 | 2.92 | 2.92 | 98 | 1013.9 |
| 20260501234701 | 57 | 121 | 1.7 | 3.5 | 0.24 | 2.88 | 2.88 | 98 | 1013.9 |
| 20260501234159 | 57 | 46 | 3.5 | 6.1 | 0.24 | 2.86 | 2.86 | 98 | 1013.8 |
| 20260501233657 | 57 | 196 | 0.0 | 2.6 | 0.42 | 2.84 | 2.84 | 98 | 1014.0 |
| 20260501233153 | 57 | 16 | 0.9 | 0.9 | 0.54 | 2.81 | 2.81 | 98 | 1014.2 |
| 20260501232649 | 57 | 8 | 0.9 | 0.9 | 0.94 | 2.76 | 2.76 | 98 | 1014.3 |
| 20260501232147 | 57 | 278 | 0.9 | 2.6 | 0.78 | 2.70 | 2.70 | 98 | 1014.4 |
| 20260501231645 | 57 | 348 | 0.9 | 0.9 | 0.31 | 2.60 | 2.60 | 98 | 1014.3 |
| 20260501231143 | 57 | 0 | 3.5 | 6.1 | 0.19 | 2.57 | 2.57 | 98 | 1013.8 |
| 20260501230641 | 57 | 40 | 1.7 | 7.8 | 0.19 | 2.55 | 2.55 | 98 | 1013.3 |
| 20260501230139 | 57 | 356 | 3.5 | 6.1 | 0.17 | 2.54 | 2.54 | 98 | 1012.9 |
| 20260501225636 | 57 | 46 | 1.7 | 6.1 | 0.12 | 2.52 | 2.52 | 98 | 1012.6 |
| 20260501225132 | 58 | 10 | 5.2 | 7.0 | 0.19 | 2.51 | 2.51 | 98 | 1012.8 |
| 20260501224629 | 58 | 3 | 4.3 | 6.1 | 0.19 | 2.49 | 2.49 | 98 | 1013.7 |
| 20260501224126 | 58 | 13 | 2.6 | 6.1 | 0.07 | 2.47 | 2.47 | 98 | 1014.2 |
| 20260501223623 | 58 | 275 | 2.6 | 7.0 | 0.00 | 2.46 | 2.46 | 98 | 1014.0 |
| 20260501223120 | 58 | 91 | 3.5 | 7.0 | 0.00 | 2.46 | 2.46 | 98 | 1014.4 |
| 20260501222615 | 58 | 331 | 5.2 | 9.6 | 0.05 | 2.46 | 2.46 | 98 | 1014.4 |
| 20260501222113 | 58 | 58 | 6.1 | 7.8 | 0.00 | 2.45 | 2.45 | 99 | 1013.8 |
| 20260501221609 | 58 | 45 | 5.2 | 7.0 | 0.00 | 2.45 | 2.45 | 99 | 1013.7 |
| 20260501221107 | 58 | 333 | 5.2 | 6.1 | 0.14 | 2.45 | 2.45 | 99 | 1013.6 |
| 20260501220604 | 58 | 30 | 2.6 | 6.1 | 0.31 | 2.45 | 2.45 | 99 | 1013.7 |
| 20260501220101 | 58 | 26 | 1.7 | 5.2 | 0.35 | 2.43 | 2.43 | 99 | 1013.4 |
| 20260501215558 | 58 | 20 | 3.5 | 6.1 | 0.31 | 2.40 | 2.40 | 99 | 1013.8 |
| 20260501215053 | 58 | 37 | 1.7 | 2.6 | 0.07 | 2.36 | 2.36 | 99 | 1013.9 |
| 20260501214548 | 58 | 13 | 0.9 | 1.7 | 0.00 | 2.35 | 2.35 | 99 | 1014.1 |
| 20260501214044 | 58 | 354 | 2.6 | 5.2 | 0.05 | 2.35 | 2.35 | 99 | 1013.7 |
| 20260501213541 | 58 | 347 | 2.6 | 2.6 | 0.12 | 2.35 | 2.35 | 99 | 1013.1 |
| 20260501213037 | 58 | 6 | 3.5 | 5.2 | 0.12 | 2.34 | 2.34 | 99 | 1012.8 |
| 20260501212534 | 58 | 1 | 3.5 | 8.7 | 0.14 | 2.32 | 2.32 | 99 | 1013.0 |
| 20260501212031 | 58 | 22 | 0.9 | 5.2 | 0.12 | 2.31 | 2.31 | 99 | 1013.7 |
| 20260501211527 | 58 | 91 | 1.7 | 3.5 | 0.17 | 2.30 | 2.30 | 99 | 1013.7 |
| 20260501211026 | 58 | 141 | 2.6 | 3.5 | 0.35 | 2.29 | 2.29 | 99 | 1013.8 |
| 20260501210521 | 58 | 285 | 0.9 | 2.6 | 0.47 | 2.27 | 2.27 | 99 | 1013.6 |
| 20260501210018 | 58 | 16 | 1.7 | 2.6 | 0.35 | 2.22 | 2.22 | 99 | 1014.0 |
| 20260501205515 | 58 | 139 | 2.6 | 2.6 | 0.26 | 2.19 | 2.19 | 99 | 1014.5 |
| 20260501205013 | 58 | 165 | 0.9 | 3.5 | 0.19 | 2.16 | 2.16 | 99 | 1014.1 |
| 20260501204508 | 58 | 354 | 0.9 | 1.7 | 0.28 | 2.15 | 2.15 | 99 | 1013.4 |